Location: Newark
(39.6867°N, 100.6772°W)
Time: 08:34:01
(UTC+00:00)

Explorer 11/Cluster Stage 4 - All Passes

Search period start: 21 October 2019 00:00
Search period end: 31 October 2019 00:00
Orbit: 467 x 1259 km, 28.8° (Epoch: 20 October)

Date Brightness Start Highest point End Pass type
(mag) Time Alt. Az. Time Alt. Az. Time Alt. Az.
21 Oct - 15:20:38 10° S 15:21:34 11° SSE 15:22:29 10° SSE daylight
21 Oct - 17:06:41 10° SW 17:09:06 16° S 17:11:40 10° SE daylight
21 Oct - 18:54:42 10° SW 18:56:46 13° S 18:59:00 10° SSE daylight
22 Oct - 15:09:32 10° SSW 15:10:56 12° S 15:12:21 10° SE daylight
22 Oct - 16:56:13 10° SW 16:58:30 16° S 17:00:53 10° SE daylight
22 Oct - 18:44:50 10° SSW 18:46:09 11° SSW 18:47:31 10° S daylight
23 Oct - 14:58:34 10° SSW 15:00:20 13° S 15:02:04 10° SE daylight
23 Oct - 16:45:46 10° SW 16:47:54 15° S 16:50:07 10° SSE daylight
24 Oct - 14:47:41 10° SSW 14:49:44 14° S 14:51:44 10° SE daylight
24 Oct - 16:35:20 10° SW 16:37:18 14° S 16:39:19 10° SSE daylight
25 Oct - 14:36:49 10° SW 14:39:08 15° S 14:41:21 10° SE daylight
25 Oct - 16:24:55 10° SW 16:26:42 13° S 16:28:30 10° SSE daylight
26 Oct - 12:39:14 10° S 12:40:51 12° SSE 12:42:23 10° SE visible
26 Oct - 14:25:59 10° SW 14:28:32 16° S 14:30:56 10° SE daylight
26 Oct - 16:14:32 10° SW 16:16:06 12° SSW 16:17:39 10° SSE daylight
27 Oct - 12:27:44 10° SSW 12:30:13 14° S 12:32:30 10° SE visible
27 Oct - 14:15:09 10° SW 14:17:56 17° S 14:20:30 10° SE daylight
27 Oct - 16:04:13 10° SW 16:05:29 11° SSW 16:06:43 10° S daylight
28 Oct - 12:16:26 10° SSW 12:19:35 16° S 12:22:23 10° SE visible
28 Oct - 14:04:19 10° SW 14:07:20 18° S 14:10:04 10° SE daylight
28 Oct - 15:54:03 10° SSW 15:54:50 11° SSW 15:55:38 10° S daylight
29 Oct - 10:19:31 10° S 10:20:59 11° SSE 10:22:23 10° SSE visible
29 Oct - 12:05:15 10° SW 12:08:56 19° S 12:12:09 10° SE visible
29 Oct - 13:53:29 10° SW 13:56:42 19° S 13:59:35 10° SE daylight
30 Oct - 10:07:19 10° SSW 10:10:16 14° SSE 10:12:58 10° SE visible
30 Oct - 11:54:07 10° SW 11:58:17 21° S 12:01:51 10° SE visible
30 Oct - 13:42:39 10° SW 13:46:04 19° S 13:49:05 10° SE daylight
